Location: Goettingen
(51.5300°N, 9.9433°E)
Time: 12:36:06
(UTC+01:00)

ISS - Pass Details

Date: 12 December 2018
Orbit: 401 x 408 km, 51.6° (Epoch: 16 December)

Event Time Altitude Azimuth Distance (km) Brightness Sun altitude
Rises 17:19:21 0° 283° (WNW) 2,321 0.9 -9.9°
Reaches altitude 10° 17:21:35 10° 272° (W) 1,458 0.1 -10.2°
Maximum altitude 17:24:28 29° 210° (SSW) 774 -1.8 -10.6°
Drops below altitude 10° 17:27:20 10° 149° (SSE) 1,450 -1.1 -11.0°
Sets 17:29:33 0° 137° (SE) 2,305 -0.2 -11.4°
